Flag for U.S.A. Weather past 2 weeks in Alpena, Michigan, U.S.A.

Now
67 °F

Sunny.


Feels Like: 67 °F
Forecast: 58 / 77 °F
Wind: 5 mph from South

Location: Alpena County Regional Airport

Current Time: Aug 29, 2015 at 8:40:53 PM

Latest Report: Aug 29, 2015 at 7:54 PM


Visibility: 10 mi

Pressure: 30.06 "Hg

Humidity: 81%

Dew point: 61 °F

Location of AlpenaLocation

Historic Weather in Alpena — Graph

°F

Alpena temperature yesterday

Maximum temperature yesterday: 75 °F (at 2:54 PM)
Minimum temperature yesterday: 47 °F (at 2:54 AM)
Average temperature yesterday: 62 °F

Past Weeks' High & Low Weather Summary

 TemperatureHumidityPressure
High92 °F (Aug 16, 1:54 PM)97% (Aug 18, 5:54 AM)30.22 "Hg (Aug 18, 5:54 AM)
Low47 °F (Aug 28, 2:54 AM)40% (Aug 17, 3:54 PM)29.63 "Hg (Aug 20, 5:54 AM)
Average67 °F77%29.96 "Hg
* Reported Aug 14 6:54 PM — Aug 29 6:54 PM, Alpena, Weather by CustomWeather, © 2015

Note: Actual official high and low records may vary slightly from our data, if they occured in-between our weather recording intervals... More about our weather records

Advertising

Alpena weather history for previous 24 hours

 ConditionsComfort  
Time TempWeatherWind HumidityBarometerVisibility
6:54 PM
Sat, Aug 29
70 °FSunny.8 mph71%30.06 "Hg10 mi
5:54 PM71 °FSunny.9 mph68%30.06 "Hg10 mi
4:54 PM72 °FSunny.9 mph64%30.07 "Hg10 mi
3:54 PM72 °FPartly sunny.10 mph68%30.08 "Hg10 mi
2:54 PM69 °FOvercast.9 mph76%30.10 "Hg10 mi
1:54 PM66 °FMore clouds than sun.6 mph78%30.11 "Hg10 mi
12:54 PM69 °FPartly sunny.6 mph79%30.12 "Hg10 mi
11:54 AM66 °FPartly sunny.3 mph84%30.12 "Hg10 mi
10:54 AM64 °FLight rain. Mostly cloudy.6 mph87%30.11 "Hg10 mi
9:54 AM62 °FLight rain. Mostly cloudy.5 mph93%30.13 "Hg9 mi
8:54 AM62 °FOvercast.6 mph90%30.14 "Hg10 mi
7:54 AM61 °FLight rain. Overcast.6 mph93%30.13 "Hg7 mi
6:54 AM61 °FLight rain. Overcast.6 mph97%30.12 "Hg8 mi
5:54 AM62 °FLight rain. Overcast.6 mph93%30.11 "Hg9 mi
4:54 AM62 °FLight rain. Passing clouds.3 mph93%30.10 "Hg10 mi
3:54 AM63 °FLight rain. Mostly cloudy.No wind90%30.09 "Hg10 mi
2:54 AM64 °FLight rain. Overcast.6 mph84%30.09 "Hg10 mi
1:54 AM65 °FPassing clouds.7 mph78%30.10 "Hg10 mi
12:54 AM64 °FPassing clouds.5 mph81%30.09 "Hg10 mi
11:54 PM
Fri, Aug 28
65 °FPassing clouds.8 mph78%30.09 "Hg10 mi
10:54 PM62 °FClear.7 mph86%30.10 "Hg10 mi
9:54 PM62 °FClear.6 mph83%30.10 "Hg10 mi
8:54 PM64 °FPartly sunny.6 mph78%30.09 "Hg10 mi
Weather by CustomWeather, © 2015

See weather overviewHow to use our weather pages